weather.gov     
National Weather Service

Regional Weather Roundup
NWS Homepage
This page is being discontinued on March 12, 2014.
The same data is available at this site. Please update your bookmarks.
Thank you, and we apologize for the inconvenience.
Please send an email to SR-SRH.Webmaster@noaa.gov with any concerns.


Current Version
Previous Version:    01  02  03  04  05  06  07  08  09  10  11  12  13  14  15  16  17  18  19  20  21  22  23  24  25  26  27  28  29  30  
   31  32  33  34  35  36  37  38  39  40  41  42  43  44  45  46  47  48  49  50  51  52  53  54  55  56  57  58  59  60  
[Printable]
860
ASUS44 KHUN 282224
RWRHUN

WEATHER ROUNDUP FOR THE TENNESSEE VALLEY
NATIONAL WEATHER SERVICE HUNTSVILLE AL
500 PM CDT MON JUL 28 2014

ALZ001>004-282300-
NORTHWEST ALABAMA

CITY           SKY/WX    TMP DP  RH WIND       PRES   REMARKS
COURTLAND HCN    N/A     81 N/A N/A N6          N/A
RUSSELLVILLE     N/A     82 N/A N/A MISG        N/A
SHOALS AIRPORT MOSUNNY   85  60  42 NW13      30.01S
$$

ALZ005>007-016-282300-
NORTH CENTRAL ALABAMA

CITY           SKY/WX    TMP DP  RH WIND       PRES   REMARKS
CULLMAN AG STN   N/A     81 N/A N/A NW7         N/A
DECATUR AP     MOSUNNY   81  61  50 N14       29.99S
HUNTSVILLE AP  MOSUNNY   82  60  47 N14G22    29.98S
HUN NWS/UAH      N/A     83  57  40 NW8         N/A
MERIDIANVILLE  SUNNY     82  54  36 N12G17    29.99S
VINEMONT AP    FAIR      81  62  50 NW7       30.01S
$$

ALZ008>010-282300-
NORTHEAST ALABAMA

CITY           SKY/WX    TMP DP  RH WIND       PRES   REMARKS
ALBERTVILLE    CLOUDY    81  66  61 N10       29.97S
CROSSVILLE       N/A     77 N/A N/A CALM        N/A
FORT PAYNE     PTSUNNY   81  55  41 N9G16     29.96S
SCOTTSBORO AP  SUNNY     82  63  51 N6        29.97S
SCOTTSBORO HCN   N/A     82 N/A N/A MISG        N/A
VALLEY HEAD      N/A     81 N/A N/A MISG        N/A
$$

TNZ076-096-097-282300-
SOUTHEASTERN MIDDLE TENNESSEE

CITY           SKY/WX    TMP DP  RH WIND       PRES   REMARKS
FAYETTEVILLE   MOSUNNY   81  61  50 NW13      29.99F
TULLAHOMA      CLOUDY    77  61  57 N9        30.01S
WINCHESTER     MOSUNNY   79  61  53 N7        29.99S
$$

...SURROUNDING SITES...

CITY           SKY/WX    TMP DP  RH WIND       PRES   REMARKS
ATLANTA        MOSUNNY   87  61  41 NW17G26   29.91S
ANNISTON       SUNNY     89  56  32 N15G22    29.93R
BIRMINGHAM     MOSUNNY   89  58  34 NW14G22   29.97R
CHATTANOOGA    MOSUNNY   84  58  40 N13       29.96S
CORINTH        FAIR      82  63  51 NW7       30.01F
DALTON         MOSUNNY   81  63  54 N8        29.95R
GADSDEN        MOSUNNY   84  57  39 NW10G17   29.95S
GOLDEN TRNGL   MOSUNNY   90  64  43 N12       29.99S HX  91
HALEYVILLE     FAIR      81  63  54 N8        30.03F
JACKSON TN     MOSUNNY   83  62  49 N14       30.03S
LEWISBURG      FAIR      81  61  50 NW8       30.00S
MEMPHIS        MOSUNNY   83  60  45 N14       30.04S
MURFREESBORO   FAIR      81  59  47 NW7       29.98S
NASHVILLE      PTSUNNY   81  59  47 NW15G21   29.99S
OXFORD MS      FAIR      82  61  47 N8        30.04S
ROME           MOSUNNY   85  60  42 NW15      29.93S
SAVANNAH       SUNNY     82  63  51 N10       30.02S
TUPELO         MOSUNNY   84  61  45 N12       30.00F
TUSCALOOSA     SUNNY     90  63  40 N12       29.95S HX  91
$$

...GULF COAST WEATHER...

CITY           SKY/WX    TMP DP  RH WIND       PRES   REMARKS
GULFPORT       PTSUNNY   94  74  52 W7        29.96F HX 104
PASCAGOULA     PTSUNNY   90  78  68 W3        29.96F HX 104
MOBILE         PTSUNNY   91  75  59 W9        29.97S HX 101
GULF SHORES      N/A     89  78  70 W18G25    29.96S HX 102
PENSACOLA      CLOUDY    86  78  77 SW8       29.95S THUNDER HX  98
DESTIN         MOSUNNY   87  79  76 W12G22    29.94S HX 101
PANAMA CITY    SUNNY     88  80  78 W15G23    29.95F HX 104
APPALACHICOLA  SUNNY     85  78  80 W17       29.95S HX  96
$$





U.S. Dept. of Commerce
NOAA National Weather Service
1325 East West Highway
Silver Spring, MD 20910
E-mail: w-nws.webmaster@noaa.gov
Page last modified: May 16, 2007
NATIONAL WEATHER SERVICE: for Safety, for Work, for Fun - FOR LIFE